Date,TemperatureHighF,TemperatureAvgF,TemperatureLowF,DewpointHighF,DewpointAvgF,DewpointLowF,HumidityHigh,HumidityAvg,HumidityLow,PressureMaxIn,PressureMinIn,WindSpeedMaxMPH,WindSpeedAvgMPH,GustSpeedMaxMPH,PrecipitationSumIn
2014-1-1,75.0,48.6,32.7,26.4,20.2,15.7,55,36,13,29.94,29.85,8,2,11,0.00
2014-1-2,71.6,49.2,33.4,27.9,22.1,17.1,59,39,14,30.01,29.89,101,2,101,0.00
2014-1-3,74.5,49.9,33.8,29.4,22.3,15.9,61,38,13,29.91,29.75,11,3,14,0.00
2014-1-4,66.6,51.5,38.7,24.8,22.1,-2.7,52,34,17,29.83,29.75,100,4,100,0.00
2014-1-5,62.4,47.0,34.7,30.9,23.4,15.1,62,42,20,29.94,29.82,8,3,10,0.00
2014-1-6,66.2,42.8,28.0,20.0,8.7,-2.4,49,25,17,30.04,29.92,12,3,17,0.00
2014-1-7,70.0,46.7,27.1,19.9,10.0,-3.2,33,23,14,29.97,29.82,8,2,12,0.00
2014-1-8,70.0,51.8,38.3,21.8,18.0,13.4,44,28,14,29.88,29.80,15,4,20,0.00
2014-1-9,66.2,46.0,34.5,24.4,18.9,-12.2,51,36,10,29.88,29.75,12,3,104,0.02
2014-1-10,68.0,48.2,33.1,26.2,21.3,16.3,63,38,16,29.93,29.80,12,4,15,0.00
2014-1-11,75.0,50.3,33.4,28.1,21.8,17.5,57,37,13,29.99,29.86,8,2,12,0.00
2014-1-12,72.5,53.3,40.3,29.1,23.4,18.3,51,34,13,29.97,29.80,16,5,21,0.00
2014-1-13,70.3,49.0,33.6,29.9,20.1,9.2,65,37,13,30.07,29.95,10,3,14,0.00
2014-1-14,68.4,50.3,30.6,20.0,14.7,7.4,47,25,14,30.08,29.99,10,2,14,0.00
2014-1-15,73.9,48.8,32.0,25.0,11.2,2.6,32,23,13,30.09,29.96,8,2,11,0.00
2014-1-16,73.9,49.4,33.3,25.0,13.7,5.4,42,25,12,29.98,29.85,10,3,14,0.00
2014-1-17,74.1,49.2,33.6,25.1,14.1,6.7,42,26,12,30.00,29.88,8,2,11,0.00
2014-1-18,76.6,50.5,33.4,25.8,12.7,5.0,34,23,12,29.96,29.88,8,3,11,0.00
2014-1-19,73.8,50.4,35.6,24.8,12.6,4.2,32,23,12,30.02,29.91,6,2,8,0.00
2014-1-20,77.0,53.0,37.8,25.7,16.5,8.9,42,25,12,30.03,29.91,7,2,129,0.00
2014-1-21,106.0,54.7,36.0,42.9,15.0,0.6,37,22,2,30.22,27.06,10,2,54,0.00
2014-1-22,74.8,56.8,43.5,27.0,17.9,11.3,36,22,13,30.07,29.85,15,3,49,0.00
2014-1-23,71.4,53.6,39.7,23.8,19.6,13.1,47,29,13,30.16,29.89,7,2,14,0.00
2014-1-24,59.9,49.8,38.8,24.6,19.6,16.3,43,31,22,30.28,30.16,9,3,12,0.00
2014-1-25,73.8,56.2,47.5,49.5,41.3,22.4,83,59,33,30.19,30.04,14,3,21,0.00
2014-1-26,71.2,53.1,40.3,42.4,35.5,29.4,85,55,28,30.06,29.93,16,4,21,0.00
2014-1-27,69.6,55.3,47.1,38.1,31.9,25.7,63,43,25,29.99,29.88,13,4,19,0.00
2014-1-28,106.0,55.6,33.8,46.9,21.8,15.1,65,30,10,30.05,27.06,9,3,51,0.00
2014-1-29,76.5,52.3,34.0,25.7,18.4,12.7,52,30,12,30.05,29.93,7,2,10,0.00
2014-1-30,74.7,58.3,41.0,25.6,18.2,9.0,31,22,13,29.96,29.84,19,6,26,0.00
2014-1-31,69.3,59.1,50.2,39.7,28.5,22.4,66,33,21,29.88,29.77,26,11,37,0.04
2014-2-1,59.0,49.2,39.0,41.0,35.6,28.3,83,61,36,29.90,29.78,17,6,24,0.00
2014-2-2,106.5,44.4,28.4,28.8,19.8,0.9,71,42,19,30.02,27.06,11,3,47,0.00
2014-2-3,58.8,42.2,31.8,36.9,19.8,10.4,96,46,20,29.89,29.72,21,5,32,0.01
2014-2-4,53.6,40.5,30.2,36.5,27.8,22.4,94,65,32,29.98,29.85,14,4,18,0.01
2014-2-5,106.9,45.7,31.6,31.0,25.2,16.6,72,49,4,30.00,27.06,14,3,53,0.00
2014-2-6,64.8,45.6,28.6,33.2,24.5,10.5,71,47,20,29.97,29.87,15,3,21,0.00
2014-2-7,63.1,49.0,38.5,36.2,30.8,21.7,82,54,22,30.07,29.90,14,5,20,0.00
2014-2-8,70.0,50.8,34.7,31.3,25.1,18.7,66,41,15,30.14,30.05,16,4,19,0.00
2014-2-9,74.8,55.7,38.7,38.5,29.8,23.9,65,40,16,30.11,29.99,19,5,27,0.00
2014-2-10,75.6,57.6,44.6,33.9,27.8,18.9,57,36,14,30.02,29.87,15,5,21,0.00
2014-2-11,74.5,53.8,38.5,37.0,28.1,18.5,76,43,14,30.05,29.91,11,3,14,0.00
2014-2-12,76.1,54.8,36.0,28.4,21.2,16.3,55,31,12,30.11,29.99,8,3,12,0.00
2014-2-13,80.1,58.7,40.1,26.4,21.9,16.9,46,26,12,30.09,29.98,12,4,18,0.00
2014-2-14,85.5,62.1,43.5,31.5,24.2,17.8,46,26,11,30.09,30.00,11,4,15,0.00
2014-2-15,90.1,61.7,43.7,31.3,21.7,15.7,36,23,11,30.08,29.99,16,3,19,0.00
2014-2-16,82.2,64.1,49.5,25.8,19.5,14.6,27,19,11,30.07,29.98,15,4,21,0.00
2014-2-17,82.2,62.7,49.3,25.8,19.6,14.2,30,20,11,30.08,29.97,12,3,17,0.00
2014-2-18,83.3,62.4,45.7,30.9,20.1,14.4,35,21,11,30.02,29.91,13,4,18,0.00
2014-2-19,77.0,59.3,45.7,25.8,18.3,14.2,32,21,12,29.95,29.83,17,5,21,0.00
2014-2-20,75.6,55.6,39.6,25.8,17.3,7.1,40,24,13,30.04,29.90,14,4,20,0.00
2014-2-21,76.1,54.7,37.9,25.8,14.1,6.1,27,20,12,30.02,29.89,11,3,14,0.00
2014-2-22,77.2,57.9,40.5,25.8,15.1,6.1,25,19,12,29.95,29.86,15,4,24,0.00
2014-2-23,77.7,58.0,47.8,33.0,19.5,11.9,34,23,12,30.02,29.94,13,3,17,0.00
2014-2-24,81.0,62.2,46.0,31.5,26.1,21.2,46,28,12,30.03,29.90,11,3,14,0.00
2014-2-25,72.1,59.6,50.5,38.6,28.3,18.8,53,32,14,30.00,29.94,19,4,27,0.00
2014-2-26,75.6,59.7,45.7,41.9,32.4,21.8,72,41,15,30.02,29.90,11,4,17,0.00
2014-2-27,74.7,58.4,43.2,36.8,32.1,23.5,66,40,16,29.99,29.85,18,5,27,0.00
2014-2-28,76.3,61.0,45.9,38.7,32.8,26.5,65,39,17,29.92,29.85,19,5,26,0.00
2014-3-1,64.2,54.8,45.5,51.6,43.4,30.4,99,70,33,29.96,29.84,33,11,43,2.27
2014-3-2,64.0,51.1,39.9,45.5,42.5,39.1,99,76,42,30.06,29.91,14,4,20,0.07
2014-3-3,71.1,55.8,45.9,46.7,42.0,31.5,90,64,24,30.04,29.90,11,3,19,0.00
2014-3-4,72.0,56.9,45.1,48.8,40.4,21.0,92,62,15,29.97,29.84,11,4,18,0.00
2014-3-5,77.2,56.5,41.5,45.8,36.1,23.9,89,55,14,30.04,29.95,9,2,14,0.00
2014-3-6,79.0,61.2,45.1,40.7,32.7,22.8,67,40,13,30.06,29.91,11,3,17,0.00
2014-3-7,73.6,60.7,47.8,42.7,34.8,6.7,68,43,16,29.94,29.82,49,6,68,0.00
2014-3-8,73.4,55.7,43.5,45.8,37.2,23.3,87,56,17,30.10,29.91,19,5,26,0.02
2014-3-9,65.7,52.6,42.1,42.7,31.4,23.4,85,49,22,30.17,30.03,24,10,30,0.00
2014-3-10,76.1,56.4,37.8,38.6,34.3,29.8,79,48,21,30.09,29.94,14,4,21,0.00
2014-3-11,71.8,57.7,42.4,36.8,29.9,21.5,73,39,15,29.99,29.90,13,5,18,0.02
2014-3-12,75.7,58.7,41.9,36.7,29.0,22.0,69,37,15,30.04,29.95,16,5,21,0.00
2014-3-13,79.0,59.7,42.6,35.5,29.9,25.9,56,35,15,30.00,29.83,19,4,24,0.00
2014-3-14,68.7,54.4,42.6,39.1,29.3,18.9,62,41,17,30.03,29.88,21,5,31,0.00
2014-3-15,69.1,56.7,42.1,34.1,24.0,14.3,64,33,15,30.07,29.97,25,9,33,0.00
2014-3-16,71.2,55.2,39.4,20.1,14.2,5.6,26,20,13,30.20,30.07,20,4,28,0.00
2014-3-17,78.8,59.0,37.4,25.8,18.5,9.4,45,22,12,30.09,29.73,19,5,27,0.00
2014-3-18,76.6,62.0,45.3,25.1,18.2,9.0,26,19,12,29.92,29.73,18,5,24,0.01
2014-3-19,79.0,59.9,43.0,32.2,22.2,13.8,55,26,12,30.04,29.92,11,3,15,0.00
2014-3-20,80.2,61.6,43.5,25.7,21.5,16.3,41,23,12,30.06,29.89,12,4,17,0.01
2014-3-21,77.4,64.1,35.8,30.9,21.7,15.9,74,21,12,30.11,29.85,19,6,27,2.53
2014-3-22,76.8,60.7,45.0,25.8,21.4,17.1,39,23,13,29.99,29.88,23,5,30,0.00
2014-3-23,78.8,60.5,43.7,32.1,25.1,18.2,55,29,13,30.04,29.92,10,3,16,0.00
2014-3-24,81.0,61.8,44.4,29.7,24.0,18.2,48,26,12,30.02,29.91,12,3,14,0.00
2014-3-25,78.8,61.1,45.1,34.6,26.6,19.0,52,30,13,29.96,29.76,20,5,25,0.06
2014-3-26,73.4,59.5,43.3,34.2,25.7,16.3,56,32,12,29.85,29.74,29,9,38,0.12
2014-3-27,71.8,58.7,47.3,37.6,32.4,26.3,65,39,21,29.93,29.81,21,6,27,0.00
2014-3-28,73.2,56.4,38.8,34.4,26.7,19.2,69,36,14,30.05,29.93,13,4,18,0.00
2014-3-29,83.5,62.5,41.2,31.2,25.3,18.1,55,29,11,30.07,29.90,12,4,16,0.00
2014-3-30,80.4,64.0,48.6,26.3,22.1,17.9,34,21,12,29.95,29.83,21,6,30,0.00
2014-3-31,77.4,61.1,43.0,25.8,21.2,10.8,44,23,12,29.96,29.86,21,6,30,0.00
2014-4-1,76.3,63.3,50.4,24.3,19.3,11.9,28,19,12,29.92,29.82,24,8,32,0.00
2014-4-2,68.7,55.6,43.0,26.1,16.6,6.6,46,22,14,29.86,29.75,30,8,37,0.05
2014-4-3,68.5,52.3,38.5,34.2,22.8,14.0,69,36,14,29.95,29.85,13,3,20,0.00
2014-4-4,76.1,56.4,37.4,25.8,18.9,14.6,45,26,12,29.93,29.78,16,4,21,0.00
2014-4-5,68.2,54.7,39.4,24.7,19.9,13.8,41,26,16,29.87,29.76,15,5,20,0.00
2014-4-6,68.5,56.3,41.7,27.5,20.4,14.6,45,26,14,29.95,29.86,21,7,27,0.00
2014-4-7,80.1,62.1,41.4,25.8,20.4,14.6,43,21,12,30.10,29.95,12,4,17,0.00
2014-4-8,110.7,65.9,43.7,41.8,23.4,15.7,42,22,10,30.15,30.03,98,4,99,0.00
2014-4-9,88.7,68.2,48.6,31.5,21.4,13.5,25,18,11,30.07,29.96,16,4,21,0.00
2014-4-10,89.2,69.7,49.6,31.5,21.3,12.4,24,16,11,30.05,29.92,24,4,30,0.00
2014-4-11,87.3,72.7,57.9,31.5,23.9,17.2,23,16,12,30.01,29.86,17,5,23,0.00
2014-4-12,80.8,69.4,54.3,27.5,21.8,16.5,25,17,12,29.88,29.74,24,8,31,0.00
2014-4-13,80.1,63.7,44.4,30.0,20.2,11.9,36,20,12,29.89,29.79,16,5,21,0.00
2014-4-14,79.3,62.4,49.6,31.9,23.4,12.3,42,24,12,30.00,29.88,12,3,17,0.00
2014-4-15,87.3,64.6,42.3,31.5,19.5,6.6,29,18,11,29.98,29.78,11,4,108,0.00
2014-4-16,82.4,66.4,46.2,30.2,18.9,9.5,25,17,11,29.87,29.74,17,5,24,0.01
2014-4-17,86.5,68.9,48.7,33.1,25.0,17.7,40,21,12,29.95,29.85,12,3,17,0.00
2014-4-18,75.0,62.0,53.8,53.3,40.7,23.0,85,50,21,29.97,29.88,21,2,29,0.08
2014-4-19,74.7,60.5,50.5,52.4,47.7,37.7,93,66,29,30.01,29.89,21,4,29,0.06
2014-4-20,82.2,63.9,46.0,48.0,41.3,34.1,89,51,21,30.04,29.95,9,2,12,0.00
2014-4-21,87.6,69.8,51.8,44.4,37.3,27.2,67,35,14,30.06,29.93,17,3,38,0.00
2014-4-22,87.6,72.3,54.1,41.7,32.8,19.9,55,27,12,29.95,29.79,21,6,28,0.00
2014-4-23,81.0,67.4,52.5,33.6,25.6,18.2,42,22,12,29.91,29.79,19,6,27,0.00
2014-4-24,84.9,66.9,45.1,31.5,22.0,14.5,31,19,11,29.97,29.86,17,4,24,0.00
2014-4-25,83.5,67.7,49.3,30.7,21.0,15.8,33,18,11,29.92,29.80,21,6,30,0.00
2014-4-26,71.1,61.2,49.8,44.6,31.4,18.8,74,36,17,29.85,29.67,31,11,49,0.86
2014-4-27,72.9,57.5,41.7,42.0,32.0,19.9,87,45,14,29.88,29.79,16,5,21,0.00
2014-4-28,77.2,57.7,45.9,33.5,28.4,22.2,55,36,15,29.94,29.85,19,4,27,0.00
2014-4-29,81.1,62.8,46.9,28.9,22.4,13.1,47,23,11,29.98,29.86,14,4,20,0.00
2014-4-30,81.3,62.4,43.7,25.8,18.1,7.1,25,18,11,29.96,29.81,13,4,18,0.00
2014-5-1,79.3,63.9,50.4,29.4,23.6,18.3,35,22,13,30.00,29.86,21,6,27,0.02
2014-5-2,86.4,65.4,45.0,31.5,24.5,18.0,45,24,11,30.04,29.92,11,3,15,0.00
2014-5-3,91.6,71.5,50.4,37.5,23.5,15.2,28,17,11,30.02,29.91,13,3,15,0.00
2014-5-4,90.0,74.1,50.9,31.5,24.5,15.5,27,16,11,30.04,29.92,16,5,23,0.00
2014-5-5,85.3,71.5,55.0,36.3,26.6,18.3,43,20,11,30.00,29.87,21,6,26,0.00
2014-5-6,81.1,70.3,61.2,32.7,22.9,16.3,29,17,11,29.87,29.69,22,10,32,0.00
2014-5-7,72.0,61.1,50.7,35.3,23.5,18.0,41,24,14,29.86,29.72,21,6,29,0.00
2014-5-8,77.5,60.7,42.6,34.4,25.7,18.2,57,29,13,29.96,29.85,14,4,17,0.00
2014-5-9,82.6,65.4,45.1,31.4,24.2,18.3,47,24,11,29.99,29.87,15,4,24,0.00
2014-5-10,86.7,75.9,50.9,35.4,29.8,21.3,37,19,12,29.91,29.74,20,9,27,0.00
2014-5-11,80.2,68.6,53.6,37.2,28.4,13.7,35,23,15,29.90,29.70,27,9,33,0.02
2014-5-12,81.7,62.8,42.8,25.8,18.4,7.1,26,18,11,29.98,29.87,13,4,18,0.00
2014-5-13,83.1,65.8,46.8,30.6,21.4,15.2,33,19,11,30.09,29.97,12,3,22,0.00
2014-5-14,82.0,66.4,50.0,28.2,23.7,18.3,38,21,11,30.15,30.03,21,8,27,0.00
2014-5-15,90.5,68.6,46.2,31.2,23.5,17.2,37,20,11,30.12,29.99,14,3,18,0.00
2014-5-16,94.6,75.7,53.1,38.6,25.9,14.6,25,16,11,30.06,29.91,15,4,21,0.00
2014-5-17,93.9,77.8,59.7,38.6,26.4,16.3,23,15,11,29.97,29.85,18,5,24,0.00
2014-5-18,93.0,76.6,55.4,38.5,25.2,16.5,23,15,11,29.91,29.83,19,5,25,0.00
2014-5-19,90.3,74.4,52.7,31.5,23.6,14.0,23,15,11,29.93,29.87,17,5,24,0.00
2014-5-20,89.4,74.3,54.9,31.5,23.9,15.7,24,16,11,29.94,29.85,23,7,34,0.00
2014-5-21,85.3,73.2,52.3,33.1,25.4,16.7,26,17,12,29.92,29.86,25,8,40,0.01
2014-5-22,84.9,71.4,58.5,41.1,31.4,22.9,44,24,12,29.94,29.86,25,7,35,0.01
2014-5-23,81.5,69.3,57.7,37.5,25.5,16.3,30,20,11,29.94,29.83,24,7,31,0.00
2014-5-24,79.7,66.5,50.5,39.6,32.8,24.5,55,31,15,29.94,29.86,14,4,21,0.00
2014-5-25,83.3,67.4,53.8,43.2,38.5,30.0,55,37,18,29.95,29.88,19,4,29,0.00
2014-5-26,90.5,80.8,56.5,44.5,36.5,32.0,48,22,13,29.99,29.92,18,5,23,0.00
2014-5-27,99.7,80.8,61.9,45.4,36.8,28.7,37,23,11,30.04,29.88,14,3,17,0.00
2014-5-28,97.2,81.6,63.7,43.7,34.0,23.4,35,19,11,29.96,29.82,17,4,27,0.00
2014-5-29,82.8,76.4,72.1,50.8,35.9,22.8,33,23,15,30.00,29.88,21,5,26,0.00
2014-5-30,98.2,84.0,59.4,52.8,43.8,35.9,58,27,12,29.96,29.83,12,4,16,0.00
2014-5-31,98.8,83.3,65.1,45.5,36.6,27.1,39,21,11,29.94,29.85,19,5,26,0.00
2014-6-1,100.8,81.7,61.7,38.5,30.8,18.2,32,17,11,29.93,29.84,15,4,21,0.00
2014-6-2,102.6,83.1,63.1,45.7,30.2,18.5,22,15,11,29.92,29.84,12,4,18,0.00
2014-6-3,101.7,84.5,65.3,45.0,33.0,23.8,33,17,11,29.92,29.82,15,4,19,0.00
2014-6-4,101.7,84.7,64.6,45.3,30.6,20.8,21,15,11,29.91,29.81,15,4,21,0.00
2014-6-5,100.9,83.4,62.2,44.9,28.9,18.2,21,14,11,29.88,29.77,18,4,103,0.00
2014-6-6,99.0,82.1,62.8,38.6,28.5,17.0,21,14,11,29.85,29.76,17,4,22,0.00
2014-6-7,97.9,80.9,61.2,42.9,30.8,17.1,27,17,12,29.86,29.77,21,4,27,0.00
2014-6-8,96.6,81.1,66.6,56.3,40.8,25.8,50,26,12,29.89,29.78,16,4,21,0.00
2014-6-9,100.2,83.6,66.2,45.5,34.8,24.1,38,19,11,29.92,29.80,11,4,15,0.00
2014-6-10,99.3,83.6,64.6,51.8,37.4,23.9,48,21,11,29.91,29.82,28,5,40,0.02
2014-6-11,96.8,84.1,70.9,51.6,43.1,18.3,46,26,13,29.94,29.86,24,6,44,0.00
2014-6-12,99.9,84.7,70.9,48.5,41.8,35.1,41,25,11,29.99,29.88,16,4,26,0.00
2014-6-13,99.3,84.5,68.2,58.7,48.3,35.1,56,32,11,29.96,29.83,22,6,32,0.00
2014-6-14,95.2,82.8,68.4,53.5,43.2,35.3,36,25,13,29.90,29.80,21,7,30,0.00
2014-6-15,95.2,81.0,63.0,42.0,34.9,25.8,30,20,12,29.90,29.84,24,7,30,0.00
2014-6-16,95.4,84.8,75.2,45.8,40.3,36.2,34,21,13,29.95,29.85,21,8,28,0.00
2014-6-17,93.6,81.6,67.3,54.5,49.8,44.9,51,34,21,29.96,29.86,23,6,30,0.00
2014-6-18,91.2,80.0,68.9,50.1,46.5,42.2,46,32,21,29.94,29.86,22,7,27,0.00
2014-6-19,93.6,80.9,60.8,52.8,44.8,37.8,55,30,16,29.99,29.88,19,4,25,0.00
2014-6-20,99.3,83.6,64.9,52.4,40.1,35.1,40,23,11,29.98,29.85,12,4,17,0.00
2014-6-21,97.9,83.9,68.0,46.6,41.1,35.9,39,24,12,29.96,29.85,13,4,21,0.00
2014-6-22,98.4,84.3,68.4,47.4,42.5,36.8,39,24,13,29.98,29.85,13,5,20,0.00
2014-6-23,97.5,84.4,69.6,50.1,42.7,35.9,38,24,12,29.97,29.88,16,5,21,0.00
2014-6-24,98.1,83.8,68.2,54.9,46.8,35.9,50,30,12,30.01,29.89,15,5,22,0.00
2014-6-25,98.1,84.7,69.8,57.2,53.5,43.9,61,37,18,29.98,29.87,18,5,27,0.00
2014-6-26,97.2,84.7,69.4,58.8,51.7,39.4,64,35,14,29.95,29.83,20,6,27,0.00
2014-6-27,95.4,83.1,69.1,49.4,41.3,28.5,37,25,11,29.88,29.78,21,6,25,0.00
2014-6-28,98.4,82.6,65.3,47.3,40.7,35.3,44,25,12,29.93,29.85,15,4,21,0.00
2014-6-29,103.1,85.6,69.1,60.5,46.3,34.0,56,29,11,30.00,29.88,13,4,18,0.00
2014-6-30,101.1,84.9,69.6,54.9,44.9,25.9,53,28,11,29.99,29.84,14,5,19,0.00
2014-7-1,100.9,86.0,69.3,47.9,39.3,27.4,42,21,11,29.95,29.84,14,5,24,0.00
2014-7-2,99.9,82.4,70.2,65.1,52.5,12.7,82,40,14,30.01,29.86,99,4,100,0.17
2014-7-3,99.0,78.3,67.8,66.5,61.2,51.3,95,60,23,30.10,29.93,19,4,26,0.07
2014-7-4,89.4,74.8,66.9,68.0,64.6,59.5,97,74,41,30.09,30.00,17,3,23,0.14
2014-7-5,91.6,76.0,68.2,69.3,65.2,57.6,99,73,34,30.12,30.00,11,3,18,0.01
2014-7-6,91.9,77.3,68.5,67.5,64.2,59.9,86,66,37,30.05,29.94,17,2,24,0.00
2014-7-7,86.5,73.2,67.6,68.4,66.0,62.3,99,79,47,30.01,29.88,12,3,16,0.33
2014-7-8,92.7,75.8,64.6,67.5,63.4,56.5,99,69,37,30.06,29.92,16,3,22,0.14
2014-7-9,91.8,73.9,64.0,66.9,63.3,56.4,97,74,35,30.06,29.93,19,4,24,0.24
2014-7-10,95.0,77.8,63.9,66.6,62.5,57.1,96,63,29,30.07,29.88,22,4,27,0.79
2014-7-11,94.5,76.3,64.2,67.4,63.8,57.6,99,71,33,30.10,29.90,21,4,29,0.73
2014-7-12,95.7,76.0,64.0,68.3,64.6,58.9,99,73,33,30.06,29.91,20,3,27,0.18
2014-7-13,94.8,77.1,65.5,69.2,65.6,56.5,98,73,34,30.05,29.94,22,4,27,0.04
2014-7-14,93.9,77.4,67.3,70.4,65.9,59.0,97,72,35,30.10,29.98,15,3,20,0.01
2014-7-15,83.7,73.6,67.8,67.9,63.8,59.7,92,72,51,30.09,29.98,14,3,23,0.00
2014-7-16,87.8,77.4,66.7,65.3,62.2,58.3,88,61,39,30.03,29.91,15,4,23,0.00
2014-7-17,88.7,78.2,66.4,60.8,52.2,44.2,67,43,24,30.00,29.92,20,5,24,0.00
2014-7-18,94.3,79.2,65.3,61.7,54.2,42.5,71,44,23,30.03,29.94,13,4,21,0.00
2014-7-19,95.7,81.7,68.5,61.1,56.0,51.6,63,43,25,30.03,29.93,11,3,14,0.00
2014-7-20,95.4,82.8,69.4,61.3,55.1,-24.5,58,41,25,30.05,29.95,14,4,21,0.00
2014-7-21,97.2,83.6,71.6,63.0,56.9,44.8,73,43,24,30.08,29.97,13,3,15,0.00
2014-7-22,100.8,83.4,69.3,64.4,53.6,44.6,64,37,15,30.11,29.98,24,3,31,0.00
2014-7-23,99.5,84.1,72.0,65.8,61.4,55.5,72,49,27,30.11,29.97,14,4,29,0.00
2014-7-24,100.8,85.0,68.7,64.3,55.8,41.2,73,42,14,30.03,29.91,17,4,27,0.00
2014-7-25,96.8,79.9,70.3,67.9,63.9,57.6,80,60,33,30.04,29.94,19,4,27,0.02
2014-7-26,96.1,82.0,65.8,64.2,61.1,22.8,82,52,14,30.05,29.90,14,5,21,0.00
2014-7-27,95.9,80.2,66.4,67.4,61.1,51.3,99,55,29,30.14,29.97,19,5,29,0.70
2014-7-28,90.0,76.9,66.2,70.7,65.9,61.8,99,72,42,30.15,30.03,8,2,11,0.05
2014-7-29,95.5,79.1,68.5,67.6,64.0,59.5,85,62,34,30.10,29.98,10,3,15,0.00
2014-7-30,96.4,79.2,69.3,65.2,60.5,54.1,80,55,33,30.05,29.97,16,4,25,0.00
2014-7-31,92.1,79.9,70.7,67.4,60.5,55.2,82,53,31,30.07,29.94,9,3,13,0.02
2014-8-1,90.9,76.0,65.5,70.0,65.4,58.7,99,73,37,30.08,29.93,14,4,21,0.34
2014-8-2,85.8,71.7,65.3,70.0,66.3,62.5,99,84,53,30.08,29.96,11,3,14,0.15
2014-8-3,93.0,76.8,63.7,68.2,63.4,57.5,99,68,35,30.05,29.95,7,2,10,0.00
2014-8-4,90.7,76.1,64.8,66.6,63.3,60.9,90,68,40,30.04,29.97,6,2,8,0.00
2014-9-26,81.7,73.1,64.0,64.6,61.2,58.5,88,67,51,29.92,29.83,8,3,12,0.05
2014-9-27,85.6,69.6,61.2,63.9,60.8,57.7,94,75,43,29.85,29.73,14,3,18,0.00
2014-9-28,82.8,70.8,60.8,64.9,58.4,52.5,97,69,36,29.86,29.78,17,4,22,0.00
2014-9-29,84.6,70.4,59.5,65.1,58.3,54.8,97,69,38,29.85,29.77,17,3,24,0.00
2014-9-30,86.0,67.8,54.7,58.7,48.3,33.3,91,57,17,29.83,29.73,12,3,17,0.00
2014-10-1,84.0,66.0,50.9,47.5,41.4,29.2,74,47,15,29.84,29.73,16,3,17,0.00
2014-10-2,83.7,65.5,50.4,48.7,43.0,36.8,75,49,21,29.95,29.83,14,2,14,0.00
2014-10-3,88.2,67.8,49.1,45.8,42.0,37.8,68,43,17,30.02,29.93,7,2,9,0.00
2014-10-4,90.7,70.9,53.6,50.3,43.7,32.3,67,43,13,29.99,29.88,11,3,17,0.00
2014-10-5,87.4,70.8,56.1,55.8,51.1,46.5,79,53,31,29.94,29.82,12,3,19,0.00
2014-10-6,88.0,69.7,55.2,52.1,46.4,37.1,74,47,20,29.93,29.84,8,2,12,0.00
2014-10-7,88.0,67.8,59.9,64.8,57.2,45.8,99,71,39,29.94,29.84,21,2,27,0.56
2014-10-8,80.4,64.3,57.6,66.2,61.3,57.3,99,92,48,29.89,29.75,11,2,14,0.37
2014-10-9,76.3,64.2,56.1,62.6,57.1,-41.7,99,81,45,29.88,29.80,20,3,23,0.01
2014-10-10,81.5,66.6,52.3,60.0,53.7,40.2,99,69,26,29.93,29.85,11,3,16,0.00
2014-10-11,85.8,65.5,55.8,54.2,49.6,39.0,91,64,22,29.95,29.84,8,2,11,0.00
2014-10-12,81.5,66.2,52.5,53.9,45.6,34.8,89,54,22,29.86,29.77,16,4,24,0.00
2014-10-13,81.5,64.8,51.8,49.9,46.0,39.4,83,55,23,29.96,29.84,10,2,11,0.00
2014-10-14,85.1,64.8,48.7,46.4,42.0,36.8,79,49,20,29.98,29.86,11,2,81,0.00
2014-10-15,88.9,68.0,50.9,48.5,43.1,33.0,72,45,15,29.93,29.84,14,3,17,0.00
2014-10-16,89.1,68.7,55.2,56.7,47.0,30.3,82,52,15,29.92,29.82,11,3,15,0.02
2014-10-17,82.2,63.7,55.0,49.4,43.6,28.5,71,52,19,29.90,29.81,8,2,11,0.00
2014-10-18,86.2,66.4,50.2,50.0,44.5,37.2,74,51,20,29.92,29.73,12,3,19,0.00
2014-10-19,84.2,65.0,53.8,54.0,48.9,39.2,81,59,23,29.99,29.85,17,3,23,0.00
2014-10-20,81.0,62.4,49.3,55.7,49.3,-28.4,91,66,1,30.00,29.90,11,2,103,0.00
2014-10-21,80.1,63.2,50.0,53.3,47.8,39.9,87,62,25,30.00,29.90,7,1,9,0.00
2014-10-22,84.0,68.0,51.3,55.2,48.1,41.4,86,52,24,30.06,29.97,8,2,13,0.00
2014-10-23,87.3,65.5,51.4,54.6,48.9,45.5,85,59,28,30.13,30.04,9,2,11,0.00
2014-10-24,89.8,68.1,52.0,53.2,48.7,43.5,81,54,26,30.17,30.06,12,2,16,0.00
2014-10-25,90.7,69.8,52.7,54.0,50.6,46.6,82,54,24,30.16,30.05,11,2,14,0.00
2014-10-26,86.4,70.0,57.7,55.6,51.3,45.0,77,55,26,30.06,29.91,20,4,24,0.00
2014-10-27,80.6,65.5,56.1,57.4,47.3,26.3,87,59,14,30.01,29.20,11,3,15,0.00
2014-10-28,81.9,60.2,0.0,52.7,46.1,41.6,85,54,25,30.08,30.00,8,2,11,0.00
2014-10-29,85.5,63.7,48.0,49.6,42.8,38.9,80,51,22,30.12,30.03,8,2,15,0.00
2014-10-30,86.9,66.1,48.9,47.9,41.1,29.7,76,45,15,30.13,30.02,9,3,15,0.00
2014-10-31,85.3,69.0,0.0,53.3,47.2,40.9,72,47,30,30.06,29.95,14,4,19,0.00
2014-11-1,81.9,67.9,56.8,52.4,42.7,25.9,74,45,14,29.99,29.90,17,4,24,0.00
2014-11-2,72.3,60.4,46.8,57.1,49.4,39.6,94,69,45,29.98,29.88,22,6,31,0.11
2014-11-3,68.4,49.7,39.9,44.6,36.0,25.4,91,63,33,30.03,29.93,12,4,17,0.00
2014-11-4,68.0,49.6,35.1,37.0,33.3,28.3,81,57,25,30.07,29.99,12,3,17,0.01
2014-11-5,69.8,54.1,41.0,45.7,41.5,36.3,85,65,40,30.18,30.03,18,5,110,0.00
2014-11-6,72.1,56.8,43.3,45.8,41.9,38.2,85,60,32,30.26,30.17,19,8,26,0.00
2014-11-7,75.6,56.9,41.9,47.6,42.0,36.6,93,61,31,30.20,30.05,9,2,16,0.34
2014-11-8,78.6,57.9,43.0,43.3,37.1,30.8,79,52,22,30.17,30.08,13,4,20,0.00
2014-11-9,79.9,59.4,43.0,43.5,38.4,29.0,79,50,16,30.12,29.90,9,2,13,0.00
2014-11-10,76.1,60.8,45.7,46.0,38.4,32.8,71,47,22,29.94,29.86,19,5,27,0.00
2014-11-11,79.3,60.4,46.6,49.1,46.1,42.5,91,63,29,29.98,29.90,12,3,17,0.00
2014-11-12,78.1,58.8,46.9,54.2,45.2,36.4,95,66,24,30.01,29.90,99,3,100,0.00
2014-11-13,77.5,59.6,45.3,52.8,45.5,38.0,97,66,26,30.07,29.98,12,3,18,0.00
2014-11-14,78.3,59.3,44.8,52.3,43.7,28.8,99,62,19,30.03,27.83,16,4,21,0.00
2014-11-15,71.2,57.1,44.8,50.6,41.0,22.5,97,62,16,30.06,29.93,14,3,21,0.00
2014-11-16,63.5,51.8,39.2,47.4,36.6,14.5,90,59,30,30.10,29.89,17,5,26,0.00
2014-11-17,63.3,45.4,30.6,28.4,20.0,11.7,54,37,22,30.14,30.03,8,2,11,0.00
2014-11-18,68.5,46.0,30.9,27.2,21.0,14.9,62,41,16,30.20,30.09,9,2,100,0.00
2014-11-19,72.7,49.0,32.2,23.2,16.9,8.1,52,31,12,30.17,30.02,8,2,13,0.00
2014-11-20,72.5,52.7,34.5,20.7,16.6,9.7,43,26,13,30.07,29.95,14,3,17,0.00
2014-11-21,67.3,50.2,35.2,38.2,22.8,17.1,77,38,16,29.99,29.86,14,3,18,0.00
2014-11-22,70.7,49.7,33.6,36.3,28.0,20.2,88,49,16,30.06,29.95,10,2,14,0.00
2014-11-23,65.5,49.9,36.3,35.6,27.2,6.7,63,43,24,30.08,29.92,21,5,26,0.00
2014-11-24,65.5,43.1,28.9,19.9,7.2,-2.2,28,22,17,30.24,30.07,13,3,20,0.00
2014-11-25,64.8,43.8,28.2,19.4,7.4,-3.9,28,22,16,30.34,30.21,11,2,13,0.00
2014-11-26,74.5,50.3,32.5,25.4,12.4,-1.0,37,23,13,30.25,30.13,99,3,99,0.35
2014-11-27,81.1,54.3,41.5,26.9,22.2,17.6,45,31,12,30.25,30.12,11,2,15,0.00
2014-11-28,80.6,56.0,38.1,26.7,22.4,15.9,51,30,12,30.13,29.98,8,2,10,0.00
2014-11-29,77.7,54.8,40.1,25.8,21.2,14.5,50,30,12,30.02,29.92,14,4,22,0.00
2014-11-30,77.0,53.6,37.4,26.7,20.6,16.3,50,30,12,30.10,29.98,11,3,17,0.00
2014-12-1,73.4,49.4,35.6,37.5,22.7,19.1,58,37,16,30.17,30.05,7,2,31,0.00
2014-12-2,70.2,53.9,38.1,51.9,30.7,18.5,84,47,14,30.08,29.98,11,2,14,0.00
2014-12-3,76.3,58.4,45.9,54.8,49.9,45.1,99,76,44,30.09,30.00,9,1,17,0.00
2014-12-4,60.3,53.1,44.2,56.9,50.2,43.2,99,90,76,30.08,29.95,14,3,19,0.14
2014-12-5,68.4,50.0,37.9,51.9,44.5,37.7,99,84,42,30.17,30.07,11,2,14,0.01
2014-12-6,59.4,48.6,40.6,49.2,44.1,40.1,98,85,64,30.18,30.11,14,1,20,0.01
2014-12-7,69.1,46.1,39.6,44.2,41.5,38.5,99,87,39,30.19,29.92,5,0,6,0.00
2014-12-8,70.7,53.6,42.4,47.6,41.4,38.9,88,66,34,29.96,29.87,100,2,103,0.00
2014-12-9,77.0,57.4,46.8,48.8,43.1,39.7,83,62,31,29.91,29.79,8,2,11,0.01
2014-12-10,76.6,54.8,41.7,48.9,35.8,23.2,87,56,17,29.85,29.77,15,3,21,0.00
2014-12-11,73.8,52.8,36.5,35.2,26.8,16.3,70,42,12,29.91,29.81,12,3,15,0.00
2014-12-12,73.0,56.5,42.4,43.8,37.1,27.6,65,50,31,29.93,29.83,14,3,18,0.00
2014-12-13,61.7,53.2,0.0,48.9,43.2,0.0,99,71,50,29.92,29.71,17,7,24,0.13
2014-12-14,62.4,42.2,30.7,43.6,33.4,26.4,97,74,35,29.95,29.13,9,2,13,0.01
2014-12-15,67.1,46.3,32.2,37.9,32.6,27.6,85,63,23,29.97,29.86,10,2,14,0.00
2014-12-16,64.9,50.9,41.4,42.4,36.5,28.8,79,60,27,29.92,29.83,11,2,16,0.00
2014-12-17,54.9,47.8,41.7,44.1,40.6,35.6,98,77,54,29.98,29.87,21,6,24,0.00
2014-12-18,56.5,44.5,34.5,48.3,42.2,32.7,99,92,62,30.00,29.89,13,2,17,0.07
2014-12-19,58.3,40.4,29.7,43.6,32.3,27.9,98,76,39,30.05,29.91,8,2,12,0.00
2014-12-20,64.9,43.3,29.5,36.7,29.0,20.9,86,62,21,29.96,29.86,7,2,10,0.00
2014-12-21,68.2,47.7,33.4,38.1,32.6,25.8,78,59,31,29.94,29.83,10,3,14,0.00
2014-12-22,68.4,49.5,35.8,41.1,36.8,30.7,89,65,34,29.88,29.74,17,4,21,0.00
2014-12-23,57.6,44.9,33.8,39.7,25.8,7.9,87,53,22,29.97,29.79,15,5,21,0.00
2014-12-24,64.6,42.6,26.6,19.4,13.1,7.4,55,32,17,29.99,29.74,10,2,13,0.00
2014-12-25,65.7,50.7,39.6,53.1,22.4,7.9,97,38,17,29.73,29.56,26,8,36,0.02
2014-12-26,52.0,39.6,25.7,38.2,23.3,8.0,93,56,22,29.88,29.64,17,5,24,0.04
2014-12-27,51.8,33.0,20.5,20.8,13.2,5.5,71,48,21,30.06,29.87,10,3,13,0.00
2014-12-28,59.2,38.1,22.8,25.6,16.4,10.5,67,45,20,30.05,29.91,8,2,12,0.00
2014-12-29,66.9,40.7,28.0,20.9,13.5,4.9,55,36,16,29.95,29.85,6,2,9,0.00
2014-12-30,68.4,48.5,30.9,21.2,14.8,5.3,50,28,15,29.88,29.76,17,5,24,0.00
2014-12-31,59.7,47.8,34.3,36.6,21.2,6.6,98,41,20,29.78,29.67,28,10,38,0.20
2015-1-1,51.8,35.0,25.9,34.2,27.2,20.3,98,75,38,29.83,29.73,17,4,24,0.01
2015-1-2,44.2,31.0,23.5,35.6,25.0,20.1,97,79,54,29.86,29.72,15,4,21,0.00